Regional Weather Roundup
Issued by NWS

Home | Current Version | Previous Version | Text Only | Print | Product List | Glossary On
Versions: 1 2 3 4 5 6 7 8 9 10 11 12 13 14 15 16 17 18 19 20 21 22 23 24 25 26 27 28 29 30 31 32 33 34 35 36 37 38 39 40 41 42 43 44 45 46 47 48 49 50
000
ASUS44 KBMX 272210
RWRAL

ALABAMA REGIONAL WEATHER ROUNDUP
NATIONAL WEATHER SERVICE BIRMINGHAM AL
500 PM CDT WED MAY 27 2015

NOTE: "FAIR" INDICATES FEW OR NO CLOUDS BELOW 12,000 FEET
WITH NO SIGNIFICANT WEATHER AND/OR OBSTRUCTIONS TO VISIBILITY.

THE REMARK "TC" DENOTES TEMPERATURE IN DEGREES CELSIUS.

ALZ001>011-014-016>018-020-272300-
NORTH ALABAMA

CITY           SKY/WX    TMP DP  RH WIND       PRES   REMARKS
MUSCLE SHOALS  TSTM      73  69  87 VRB3      30.17R VSB 1
HUNTSVILLE     TSTM      77  70  79 SE15      30.12F
DECATUR        CLOUDY    79  69  71 N5        30.13F
HALEYVILLE     FAIR      73  73 100 CALM      30.16S
GADSDEN        PTSUNNY  N/A N/A N/A NE7       30.11F THUNDER
$$

ALZ012-013-022-023-030>036-040>044-272300-
WEST CENTRAL ALABAMA

CITY           SKY/WX    TMP DP  RH WIND       PRES   REMARKS
TUSCALOOSA     TSTM      80  71  74 SE8       30.09S
$$

ALZ015-024>027-033>036-040>044-272300-
CENTRAL ALABAMA

CITY           SKY/WX    TMP DP  RH WIND       PRES   REMARKS
BIRMINGHAM     CLOUDY    83  68  60 SE7       30.12F
MONTGOMERY     LGT RAIN  72  68  88 SE8       30.12R FOG
SHELBY CO ARPT CLOUDY    76  72  87 CALM      30.12R
MAXWELL AFB    TSTM      72  70  94 SE10      30.13R FOG
GREENVILLE     FAIR      72  68  88 SW5       30.10F
$$

ALZ019-021-028-029-037-038-045>048-272300-
EAST CENTRAL ALABAMA

CITY           SKY/WX    TMP DP  RH WIND       PRES   REMARKS
ANNISTON       PTSUNNY   85  63  47 VRB7      30.12F
ALEXANDER CITY MOSUNNY   84  67  56 SE6       30.12F
AUBURN         MOSUNNY   82  64  54 SE9       30.15F
$$

ALZ051>064-272300-
SOUTHWEST ALABAMA

CITY           SKY/WX    TMP DP  RH WIND       PRES   REMARKS
MOBILE         CLOUDY    76  70  82 SE3       30.12S THUNDER
BROOKLEY FIELD CLOUDY    81  73  76 VRB3      30.12F
EVERGREEN      CLOUDY    75  72  90 SE3       30.13F
$$

ALZ049-050-065>069-272300-
SOUTHEAST ALABAMA

CITY           SKY/WX    TMP DP  RH WIND       PRES   REMARKS
DOTHAN         PTSUNNY   84  69  60 S8        30.18R THUNDER
OZARK          TSTM      72  70  94 VRB2      30.13F FOG
TROY           CLOUDY    77  69  76 SW5       30.12F
EUFAULA        FAIR      87  71  58 VRB6      30.11F HX  93
$$



USA.gov is the U.S. government's official web portal to all federal, state and local government web resources and services.